Belleville, IL

7:22 PM CDT on July 25, 2017 (GMT -0500)
Scott Air Force Base-Midamerica

Weather History for KBLV - December, 2012

Change the Weather History Date:

Sunday, December 23, 2012

  Actual Average Record
Temperature  
Mean Temperature 40 °F -  
Max Temperature 52 °F 40 °F 68 °F (1982)
Min Temperature 29 °F 25 °F -16 °F (1989)
Degree Days  
Heating Degree Days 24    
Moisture  
Dew Point 31 °F    
Average Humidity 75    
Maximum Humidity 94    
Minimum Humidity 43    
Precipitation  
Precipitation 0.00 in - - ()
Sea Level Pressure  
Sea Level Pressure 29.92 in    
Wind  
Wind Speed 5 mph (NNE)    
Max Wind Speed 9 mph    
Max Gust Speed -    
Visibility 7 miles    
Events      
Averages and records for this station are not official NWS values.
T = Trace of Precipitation, MM = Missing Value Source: NWS Daily Summary

Daily Weather History Graph

Daily Weather History Graph

Search for Another Location

Airport or City:

Trip Planner

Search our weather history database for the weather conditions in past years. The results will help you decide how hot, cold, wet, or windy it might be!

Date:

Astronomy

Dec. 23, 2012 Rise Set
Actual Time 7:14 AM CST 4:43 PM CST
Civil Twilight 6:44 AM CST 5:12 PM CST
Nautical Twilight 6:11 AM CST 5:46 PM CST
Astronomical Twilight 5:38 AM CST 6:18 PM CST
Moon 1:32 PM CST (12/23) 2:58 AM CST (12/23)
Length of Visible Light 10h 28m
Length of Day
9h 28m
Waxing Gibbous, 82% of the Moon is Illuminated
Dec 23
Waxing Gibbous
Dec 28
Full
Jan 4
Last Quarter
Jan 11
New
Jan 18
First Quarter

Hourly Weather History & Observations

Time (CST) Temp. Windchill Dew Point Humidity Pressure Visibility Wind Dir Wind Speed Gust Speed Precip Events Conditions
12:55 AM 34.5 °F 27.9 °F 29.1 °F 81% 29.96 in 10.0 mi South 8.1 mph - N/A   Clear
1:55 AM 32.5 °F 27.1 °F 28.2 °F 84% 29.96 in 10.0 mi South 5.8 mph - N/A   Clear
2:55 AM 32.5 °F 27.1 °F 28.2 °F 84% 29.96 in 10.0 mi South 5.8 mph - N/A   Clear
3:55 AM 30.7 °F 27.3 °F 27.7 °F 88% 29.94 in 10.0 mi SSW 3.5 mph - N/A   Clear
4:55 AM 30.9 °F - 27.7 °F 88% 29.94 in 10.0 mi Calm Calm - N/A   Clear
5:55 AM 29.7 °F - 27.7 °F 92% 29.96 in 10.0 mi Calm Calm - N/A   Clear
6:55 AM 29.3 °F - 27.3 °F 92% 29.96 in 10.0 mi Calm Calm - N/A   Clear
7:55 AM 30.0 °F - 28.4 °F 94% 29.97 in 10.0 mi Calm Calm - N/A   Clear
8:55 AM 33.3 °F - 30.2 °F 89% 29.98 in 10.0 mi Calm Calm - N/A   Clear
9:55 AM 43.7 °F - 32.0 °F 63% 29.98 in 10.0 mi Calm Calm - N/A   Clear
10:55 AM 48.2 °F - 29.1 °F 48% 29.97 in 10.0 mi Calm Calm - N/A   Clear
11:55 AM 52.2 °F - 30.4 °F 43% 29.94 in 10.0 mi Calm Calm - N/A   Clear
12:55 PM 51.4 °F - 31.3 °F 46% 29.92 in 10.0 mi ENE 5.8 mph - N/A   Clear
1:55 PM 52.3 °F - 31.3 °F 45% 29.90 in 10.0 mi NE 6.9 mph - N/A   Clear
2:55 PM 50.7 °F - 31.5 °F 48% 29.89 in 10.0 mi NE 8.1 mph - N/A   Clear
3:55 PM 50.0 °F - 30.7 °F 48% 29.90 in 7.0 mi NNE 5.8 mph - N/A   Clear
4:55 PM 44.4 °F 41.2 °F 33.1 °F 64% 29.91 in 2.5 mi North 5.8 mph - N/A   Haze
5:03 PM 44.6 °F 41.4 °F 32.0 °F 61% 29.91 in 3.0 mi NNE 5.8 mph - N/A   Haze
5:11 PM 42.8 °F 38.6 °F 32.0 °F 66% 29.91 in 3.0 mi North 6.9 mph - N/A   Haze
5:55 PM 41.7 °F 37.3 °F 33.3 °F 72% 29.92 in 3.0 mi North 6.9 mph - N/A   Haze
6:04 PM 41.0 °F 37.1 °F 33.8 °F 76% 29.92 in 4.0 mi NNE 5.8 mph - N/A   Haze
6:36 PM 39.2 °F 33.6 °F 32.0 °F 75% 29.91 in 5.0 mi NNE 8.1 mph - N/A   Haze
6:55 PM 38.8 °F 32.6 °F 32.9 °F 79% 29.91 in 6.0 mi NNE 9.2 mph - N/A   Haze
7:55 PM 36.7 °F 32.0 °F 31.8 °F 83% 29.91 in 6.0 mi NNE 5.8 mph - N/A   Haze
8:07 PM 37.4 °F 32.8 °F 32.0 °F 81% 29.91 in 5.0 mi North 5.8 mph - N/A   Haze
8:55 PM 35.6 °F 30.7 °F 32.2 °F 87% 29.91 in 4.0 mi NNE 5.8 mph - N/A   Clear
9:21 PM 35.6 °F 31.7 °F 32.0 °F 87% 29.90 in 5.0 mi North 4.6 mph - N/A   Partly Cloudy
9:55 PM 36.3 °F 32.5 °F 32.2 °F 85% 29.89 in 8.0 mi NNE 4.6 mph - N/A   Mostly Cloudy
10:52 PM 35.6 °F 29.9 °F 32.0 °F 87% 29.87 in 5.0 mi NNE 6.9 mph - N/A   Haze
10:55 PM 36.3 °F 31.6 °F 32.2 °F 85% 29.87 in 5.0 mi NNE 5.8 mph - N/A   Haze
11:15 PM 35.6 °F 30.7 °F 32.0 °F 87% 29.86 in 6.0 mi NNE 5.8 mph - N/A   Scattered Clouds
11:32 PM 35.6 °F 31.7 °F 32.0 °F 87% 29.86 in 5.0 mi North 4.6 mph - N/A   Partly Cloudy
11:55 PM 35.2 °F 31.2 °F 32.0 °F 88% 29.86 in 5.0 mi NNE 4.6 mph - N/A   Clear